Location: Fort Wayne
(41.1310°N, 85.1290°W)
Time: 21:31:39
(UTC-04:00)

Daily predictions for brighter satellites

Satellite Brightness Start Highest point End
(mag) Time Altitude Azimuth Time Altitude Azimuth Time Altitude Azimuth
ATLAS CENTAUR R/B 1.1 20:58:03 10° SSW 21:01:36 56° ESE 21:05:20 10° NE
Cosmos 2228 Rocket 4.0 21:00:59 10° SSE 21:04:45 29° E 21:08:32 10° NNE
Meteor 2-3 Rocket 3.9 20:59:47 10° N 21:05:16 52° ENE 21:10:44 10° SSE
SJ-6B 3.0 21:02:05 10° S 21:06:07 81° WSW 21:10:05 10° NNW
Timation 1 Rocket 4.4 21:00:58 10° NNW 21:06:58 87° WSW 21:12:57 10° SSE
H-2A R/B 4.0 21:06:33 10° E 21:08:20 12° ENE 21:10:06 10° NE
Cosmos 1805 Rocket 4.2 21:04:08 10° NNW 21:08:25 60° W 21:12:39 10° S
Cosmos 2360 Rocket 4.5 21:06:57 10° WSW 21:11:48 29° NW 21:16:39 10° N
Cosmos 1408 3.9 21:08:59 10° NNE 21:12:00 24° ENE 21:14:42 12° SE
Cosmos 1328 Rocket 3.7 21:07:56 10° S 21:12:12 52° E 21:16:32 10° NNE
Envisat 3.2 21:09:00 10° S 21:14:05 77° WSW 21:19:11 10° NNW
Cosmos 1980 3.9 21:09:19 10° S 21:14:45 48° ESE 21:20:12 10° NE
Cosmos 1939 Rocket 2.9 21:12:50 10° SSE 21:16:38 59° ENE 21:20:30 10° N
Cosmos 2251 Rocket 4.1 21:12:27 10° NNW 21:17:46 62° WSW 21:23:02 10° S
NOSS 3 (A) 4.5 21:16:53 10° SSW 21:19:34 54° ESE 21:22:30 10° NE
ERS-2 2.3 21:17:08 10° S 21:20:47 77° WSW 21:24:29 10° NNW
Cosmos 2154 Rocket 4.2 21:18:44 10° SSW 21:24:59 76° W 21:31:14 10° N
Cosmos 1455 2.1 21:22:21 10° S 21:26:10 87° E 21:30:03 10° N
Cosmos 1844 Rocket 3.6 21:21:02 10° NW 21:26:30 49° WSW 21:31:54 10° S
Cosmos 1470 Rocket 3.7 21:22:31 10° N 21:26:50 53° E 21:31:10 10° SSE
Cosmos 2056 Rocket 4.4 21:22:30 10° SSE 21:27:05 29° E 21:31:40 10° NE
Cosmos 2333 Rocket 2.3 21:22:09 10° SSW 21:27:48 82° WNW 21:33:29 10° NNE
SL-8 R/B 3.6 21:23:45 10° SW 21:28:32 78° SSE 21:33:21 10° ENE
YAOGAN 6 2.6 21:25:50 10° SSE 21:29:24 86° WSW 21:33:05 10° NNW
Resurs 01 Rocket 1.6 21:26:23 10° SSE 21:30:48 76° ENE 21:35:15 10° N
COSMOS 2428 4.0 21:27:36 10° SW 21:33:05 45° WNW 21:38:34 10° NNE
Lacrosse 5 4.3 21:30:42 10° NNW 21:33:17 14° N 21:35:52 10° NE
Cosmos 1892 3.6 21:31:18 10° NNW 21:35:05 50° W 21:38:49 10° S
Meteor 1-27 4.3 21:29:44 10° S 21:35:29 87° W 21:41:11 10° N
Cosmos 1844 4.4 21:31:05 10° NNW 21:36:38 53° WSW 21:42:11 10° S
Cosmos 2219 Rocket 2.9 21:32:43 10° SW 21:38:17 58° WNW 21:43:52 10° NNE
Cosmos 2098 Rocket 3.7 21:34:44 11° SSE 21:38:37 32° E 21:42:04 10° NNE
NOSS 0 Rocket 3.9 21:32:35 10° SSW 21:38:46 86° ESE 21:45:01 10° NNE
Cosmos 2237 Rocket 2.1 21:36:10 10° SSW 21:41:46 76° ESE 21:47:24 10° NNE
Cosmos 1624 Rocket 4.3 21:38:56 10° S 21:43:47 42° ESE 21:48:39 10° NNE
Cosmos 405 4.2 21:43:30 10° NNE 21:46:24 23° ENE 21:46:53 23° E
Genesis I 3.7 21:42:45 10° NW 21:46:47 60° WSW 21:49:41 18° SSE
Cosmos 2341 Rocket 4.3 21:43:36 10° SSW 21:49:56 72° W 21:56:17 10° N
Thor Agena Rocket 4.4 21:45:17 10° N 21:50:24 54° WNW 21:55:32 10° SSW
ATLAS 2AS CENTAUR R/B 3.1 21:42:44 10° NW 21:50:35 73° WSW 21:56:47 15° SSE
Cosmos 2278 Rocket 2.2 21:46:10 10° NNW 21:51:53 88° ENE 21:56:10 18° SSE
Cosmos 2218 Rocket 4.0 21:46:47 10° S 21:53:03 67° E 21:59:24 10° NNE
Cosmos 1151 Rocket 3.0 21:50:00 10° S 21:54:14 81° W 21:58:32 10° N
Cosmos 1933 Rocket 3.5 21:50:57 10° N 21:55:21 89° W 21:58:46 16° S
NOAA 11 4.2 21:51:00 13° SSE 21:55:57 86° ENE 22:01:29 10° NNW
Spot 2 Rocket 3.6 21:51:53 11° S 21:56:48 80° WSW 22:01:55 10° NNW
Cosmos 405 Rocket 3.8 22:01:59 26° E 22:01:59 26° E 22:04:54 10° NNE
Cosmos 2366 rocket 3.9 21:56:55 10° S 22:03:04 72° E 22:09:21 10° NNE
Cosmos 1862 4.2 22:01:29 10° NNE 22:05:07 31° ENE 22:05:27 30° E
USA 186 4.1 22:04:17 10° WSW 22:05:21 12° W 22:06:25 10° WNW
Cosmos 1825 2.4 22:07:17 10° NNW 22:11:02 66° W 22:13:04 25° S
SL-8 Rocket 4.2 22:05:19 10° SSW 22:11:37 75° W 22:17:54 10° N
Cosmos 1869 Rocket 3.8 22:13:45 10° N 22:17:59 47° ENE 22:18:36 44° ESE
GEOS 3 Rocket 4.2 22:13:10 10° NE 22:17:47 34° ESE 22:17:47 34° ESE
Helios 1A 4.0 22:18:13 29° ENE 22:18:22 29° ENE 22:22:00 10° N
Cosmos 1339 Rocket 4.4 22:13:08 10° N 22:19:15 82° E 22:22:59 25° SSE
NOSS 3-4 (A) 3.9 22:14:07 10° NNW 22:21:08 67° NE 22:24:48 32° SE
NOSS 3-4 (C) 3.9 22:14:13 10° NNW 22:21:15 67° NE 22:24:54 32° SE
CZ-4C R/B 3.7 22:30:39 20° ENE 22:30:39 20° ENE 22:32:48 10° NE
Cosmos 614 Rocket 4.4 22:25:16 10° N 22:30:15 44° ENE 22:31:09 40° E
USA 267 3.6 22:25:07 10° ENE 22:31:05 37° SE 22:37:00 10° SSW
ERS-1 Rocket 3.0 22:30:03 47° SE 22:31:15 61° ENE 22:36:13 10° N
ARGOS 3.0 22:29:23 37° SSE 22:31:35 87° ENE 22:36:59 10° NNW
MetOp-B 4.0 22:30:03 41° SSE 22:31:59 78° ENE 22:37:21 10° N
SL-16 R/B 2.1 22:27:04 10° SSW 22:32:43 80° ESE 22:38:24 10° NNE
Cosmos 1943 Rocket 4.2 22:31:47 10° NNE 22:34:25 13° NE 22:35:53 12° ENE
Cosmos 407 Rocket 3.4 22:31:06 10° NNW 22:36:15 87° WSW 22:37:42 48° SSE
DMSP B5D2-2 4.4 22:32:14 10° NNE 22:37:07 43° E 22:37:07 43° E
SPOT 1/Viking Rocket 4.0 22:38:29 41° E 22:39:04 43° ENE 22:44:00 10° N
Cosmos 2344 3.6 22:32:56 10° SSW 22:40:21 57° ESE 22:48:16 10° NE
ATLAS CENTAUR R/B 4.4 22:38:48 10° WNW 22:40:57 15° NW 22:43:11 10° N
USA 81 4.0 22:35:39 10° N 22:40:57 86° W 22:42:46 43° S
Meteor 2-10 Rocket 4.1 22:36:34 10° SSW 22:42:14 66° WNW 22:48:03 10° N
H-2A R/B 1.9 22:45:53 54° S 22:47:03 86° WSW 22:52:03 10° NNW
Cosmos 1933 4.0 22:51:36 45° NNE 22:51:36 45° NNE 22:54:35 10° NNE
Terra 3.1 22:52:36 28° NE 22:52:36 28° NE 22:56:09 10° N
Cosmos 1934 Rocket 4.3 22:55:48 45° E 22:55:48 45° E 23:01:26 10° NNE
Cosmos 676 Rocket 3.8 22:52:25 10° NNW 22:57:41 90° E 22:58:14 73° SSE
Cosmos 1023 Rocket 4.3 22:59:45 10° NNW 23:04:56 89° ENE 23:05:05 85° SSE
Cosmos 2297 4.0 22:59:55 10° NNW 23:05:30 60° WSW 23:06:39 50° SSW
Cosmos 1441 Rocket 4.4 23:06:14 38° W 23:06:19 38° WNW 23:09:51 10° N
Cosmos 1452 Rocket 3.4 23:09:18 78° SSW 23:09:40 88° WNW 23:14:57 10° NNE
Cosmos 2369 Rocket 3.2 23:05:08 10° N 23:10:14 32° ENE 23:10:23 32° ENE
SPOT 5 2.9 23:17:03 67° NW 23:17:03 67° NW 23:20:59 10° NNW
Lacrosse 5 3.2 23:13:19 10° NNW 23:17:45 30° NNE 23:18:19 29° NE
Cosmos 1000 Rocket 4.4 23:11:50 10° N 23:18:03 81° W 23:19:06 63° SSW
CZ-2C R/B 4.4 23:18:51 10° NE 23:20:55 20° NE 23:20:55 20° NE
Cosmos 1821 Rocket 4.0 23:22:08 56° SSW 23:23:33 79° W 23:29:54 10° N
Cosmos 1140 Rocket 3.8 23:22:37 10° NNW 23:27:32 57° W 23:27:32 57° W
Centaur D-1A AC-31 4.1 23:24:03 10° SW 23:25:38 13° SW 23:25:38 13° SW
Cosmos 1850 Rocket 4.4 23:23:21 10° NNW 23:27:44 57° NNE 23:27:44 57° NNE
Helios 1B rocket 3.7 23:27:47 10° N 23:30:32 38° NNW 23:30:32 38° NNW
Meteor 1-25 Rocket 4.4 23:26:11 10° N 23:31:19 63° NE 23:31:19 63° NE
ATLAS 2A CENTAUR R/B 4.4 23:22:13 10° WSW 23:33:58 32° SSW 23:33:58 32° SSW
ATLAS 5 CENTAUR R/B 3.1 23:29:44 10° NNW 23:35:18 41° NE 23:35:40 41° ENE
Meteor 1-26 Rocket 4.2 23:36:13 75° NNW 23:36:13 75° NNW 23:41:22 10° N
Cosmos 1741 Rocket 4.4 23:31:37 10° NNW 23:36:07 61° N 23:36:07 61° N
SL-19 R/B 4.4 23:38:01 68° W 23:38:01 68° W 23:43:30 10° NNW
Cosmos 2123 Rocket 3.9 23:35:27 10° N 23:41:43 88° NNE 23:41:43 88° NNE
RESURS DK-1 4.4 23:42:52 10° N 23:44:48 24° N 23:44:48 24° N
